Location: Ch�tillon
(48.8024°N, 2.2935°E)
Time: 20:38:46
(UTC+00:00)

NOAA 18 - Visible Passes

Search period start: 27 June 2022 00:00
Search period end: 07 July 2022 00:00
Orbit: 840 x 859 km, 98.9° (Epoch: 27 June)

Date Brightness Start Highest point End Pass type
(mag) Time Alt. Az. Time Alt. Az. Time Alt. Az.
27 Jun 5.7 21:45:25 12° S 21:50:28 56° W 21:55:56 10° NNW visible
28 Jun 5.4 21:33:14 12° S 21:38:23 70° WSW 21:43:57 10° NNW visible
28 Jun 7.6 23:18:39 10° W 23:20:05 11° W 23:21:31 10° WNW visible
29 Jun 5.3 21:21:02 11° SSE 21:26:20 86° WSW 21:31:55 10° NNW visible
29 Jun 7.5 23:04:58 10° WSW 23:07:50 14° W 23:10:41 10° NW visible
30 Jun 5.3 21:08:51 10° SSE 21:14:18 78° ENE 21:19:52 10° NNW visible
30 Jun 7.3 22:51:57 10° SW 22:55:36 18° W 22:59:17 10° NW visible
01 Jul 5.4 20:56:51 10° SSE 21:02:17 64° ENE 21:07:47 10° N visible
01 Jul 7.0 22:39:10 10° SW 22:43:24 22° W 22:47:40 10° NW visible
02 Jul 5.6 20:44:58 10° SE 20:50:17 52° ENE 20:55:40 10° N visible
02 Jul 6.8 22:26:34 10° SSW 22:31:13 28° W 22:35:56 10° NW visible
03 Jul 5.9 20:33:10 10° SE 20:38:19 42° ENE 20:43:31 10° N visible
03 Jul 6.5 22:14:16 11° SSW 22:19:04 34° W 22:24:05 10° NNW visible
04 Jul 6.1 22:02:05 12° SSW 22:06:56 42° W 22:12:12 10° NNW visible
05 Jul 5.8 21:49:54 12° S 21:54:49 52° W 22:00:16 10° NNW visible
06 Jul 5.5 21:37:43 12° S 21:42:45 65° WSW 21:48:17 10° NNW visible
06 Jul 7.8 23:24:13 10° W 23:24:29 10° W 23:24:44 10° W visible
